Miscellaneous Local Product
Issued by NWS Hastings, NE

Home | Current Version | Previous Version | Graphics & Text | Print | Product List | Glossary On
Versions: 1 2 3 4 5 6 7 8 9 10 11 12 13 14 15 16 17 18 19 20 21 22 23 24 25 26 27 28 29 30 31 32 33 34 35 36 37 38 39 40 41 42 43 44 45 46 47 48 49 50
000
AXUS43 KGID 011402
MISGRI

GID CWA HOURLY WEATHER ROUNDUP
NATIONAL WEATHER SERVICE HASTINGS NE
900 AM CDT WED JUL 01 2015

NOTE: "FAIR" INDICATES FEW OR NO CLOUDS BELOW 12,000 FEET WITH NO
SIGNIFICANT WEATHER AND/OR OBSTRUCTIONS TO VISIBILITY.

...SOUTH CENTRAL NEBRASKA...

CITY           SKY/WX    TMP DP  RH WIND       PRES   REMARKS
GRAND ISLAND   PTSUNNY   70  65  84 NE10      29.85F
HASTINGS       SUNNY     72  65  78 NE10      29.84R
KEARNEY        PTSUNNY   70  63  78 N9        29.86R
ORD            CLOUDY    69  63  81 NE8       29.89R
YORK           MOSUNNY   70  66  88 NE9       29.86R
AURORA         PTSUNNY   70  67  90 E10       29.85F
LEXINGTON      SUNNY     70  65  82 N10       29.88S
HOLDREGE       MOSUNNY   69  64  83 N12G20    29.86R
HEBRON         SUNNY     75  64  69 SE10      29.80F

...NEBRASKA PANHANDLE...

CITY           SKY/WX    TMP DP  RH WIND       PRES   REMARKS
CHADRON        SUNNY     73  62  68 W9        29.99R
ALLIANCE       SUNNY     72  64  76 W8        30.01R
SCOTTSBLUFF    MOSUNNY   73  59  61 W9        30.05R
SIDNEY         SUNNY     73  60  63 NW10      30.06R

...WESTERN AND NORTH CENTRAL NEBRASKA...

CITY           SKY/WX    TMP DP  RH WIND       PRES   REMARKS
VALENTINE      SUNNY     73  65  75 W6        29.91R
AINSWORTH      SUNNY     69  64  83 CALM      29.90S
ONEILL         CLOUDY    67  65  92 SE5       29.91R FOG
BROKEN BOW     SUNNY     70  63  78 N6        29.90R
IMPERIAL       SUNNY     79  63  57 N9        29.94S
NORTH PLATTE   MOSUNNY   71  65  81 N7        29.93R
MCCOOK         MOSUNNY   73  64  73 N13       29.89R HAZE

...EASTERN NEBRASKA...

CITY           SKY/WX    TMP DP  RH WIND       PRES   REMARKS
NORFOLK        CLOUDY    68  65  90 VRB5      29.91R FOG
SO SIOUX CITY  PTSUNNY   68  65  90 E8        29.87R FOG
TEKAMAH        CLOUDY    69  66  90 NE12      29.88S
COLUMBUS       SUNNY     72  63  73 E9        29.89R
ALBION         PTSUNNY   68  63  84 E7        29.89R
OMAHA EPPLEY   PTSUNNY   71  66  84 SE5       29.87R
OFFUTT AFB     MOSUNNY   72  67  84 NE8       29.86R
MILLARD        MOSUNNY   72  66  83 E3        29.87R
LINCOLN        CLOUDY    71  68  90 E9        29.86R FOG
NEBRASKA CITY  CLOUDY    70  68  95 E8        29.85R
BEATRICE       SUNNY     75  67  77 S12G17    29.82R
FALLS CITY     PTSUNNY   73  68  84 SE5       29.82R

...NORTHERN KANSAS...

CITY           SKY/WX    TMP DP  RH WIND       PRES   REMARKS
GOODLAND       MOSUNNY   78  56  46 NW20      29.97S
HILL CITY      CLOUDY    82  57  42 NW12      29.84R
NORTON         SUNNY     75  61  60 NW16G23   29.84R
PHILLIPSBURG   SUNNY     81  64  57 N3        29.79S
SMITH CENTER   SUNNY     81  63  54 CALM      29.79R
HAYS           PTSUNNY   82  54  36 W16       29.79S
RUSSELL        PTSUNNY   83  56  39 W14       29.77R
CONCORDIA      MOSUNNY   79  65  62 SE13      29.78S
SALINA         CLOUDY    82  61  48 S7        29.78S
TOPEKA         CLOUDY    75  69  81 SE15G25   29.82F



USA.gov is the U.S. government's official web portal to all federal, state and local government web resources and services.